When you browse on this site, cookies collect data to enhance your experience and personalize the content and advertising you see.
Visit our Privacy Policy to learn more. By continuing to use the site, you agree to this use of cookies and data.
  • In Hungary
  • List of Countries
  • For 7 days
  • Water Temperature
  • Satellite Maps
  • Weather Map
  • News
  • Weather Widgets
  • user-avatar
    Login

    Hourly Weather Amar

    Today, 25 April, Thursday

    Time Temperature Precipitation Wind Pressure Humidity
    00:00 +23°C° 0 mm 7 mps 760 mmHg 48%
    01:00 +23°C° 0 mm 7 mps 760 mmHg 48%
    02:00 +23°C° 0 mm 7 mps 759 mmHg 49%
    03:00 +23°C° 0 mm 7 mps 759 mmHg 49%
    04:00 +23°C° 0 mm 8 mps 759 mmHg 48%
    05:00 +23°C° 0 mm 8 mps 760 mmHg 47%
    06:00 +23°C° 0 mm 8 mps 760 mmHg 47%
    07:00 +24°C° 0 mm 8 mps 760 mmHg 42%
    08:00 +24°C° 0 mm 8 mps 760 mmHg 37%
    09:00 +26°C° 0 mm 8 mps 760 mmHg 32%
    10:00 +27°C° 0 mm 8 mps 760 mmHg 29%
    11:00 +28°C° 0 mm 8 mps 760 mmHg 26%
    12:00 +28°C° 0 mm 8 mps 760 mmHg 23%
    13:00 +28°C° 0 mm 8 mps 760 mmHg 25%
    14:00 +28°C° 0 mm 8 mps 759 mmHg 26%
    15:00 +28°C° 0 mm 8 mps 759 mmHg 28%
    16:00 +27°C° 0 mm 7 mps 759 mmHg 31%
    17:00 +26°C° 0 mm 7 mps 758 mmHg 34%
    18:00 +24°C° 0 mm 7 mps 758 mmHg 38%
    19:00 +24°C° 0 mm 7 mps 758 mmHg 38%
    20:00 +24°C° 0 mm 6 mps 759 mmHg 39%
    21:00 +24°C° 0 mm 6 mps 759 mmHg 39%
    22:00 +25°C° 0 mm 5 mps 759 mmHg 39%
    23:00 +25°C° 0 mm 5 mps 759 mmHg 39%

    Tomorrow, 26 April, Friday

    Time Temperature Precipitation Wind Pressure Humidity
    00:00 +23°C° 0 mm 5 mps 758 mmHg 39%
    01:00 +23°C° 0 mm 5 mps 758 mmHg 39%
    02:00 +23°C° 0 mm 5 mps 758 mmHg 40%
    03:00 +23°C° 0 mm 5 mps 758 mmHg 40%
    04:00 +23°C° 0 mm 5 mps 758 mmHg 40%
    05:00 +23°C° 0 mm 5 mps 758 mmHg 40%
    06:00 +23°C° 0 mm 5 mps 758 mmHg 39%
    07:00 +26°C° 0 mm 6 mps 758 mmHg 35%
    08:00 +27°C° 0 mm 6 mps 758 mmHg 31%
    09:00 +28°C° 0 mm 6 mps 759 mmHg 27%
    10:00 +29°C° 0 mm 6 mps 759 mmHg 26%
    11:00 +29°C° 0 mm 6 mps 759 mmHg 24%
    12:00 +30°C° 0 mm 6 mps 758 mmHg 22%
    13:00 +30°C° 0 mm 6 mps 758 mmHg 23%
    14:00 +29°C° 0 mm 7 mps 758 mmHg 24%
    15:00 +29°C° 0 mm 7 mps 757 mmHg 25%
    16:00 +28°C° 0 mm 6 mps 757 mmHg 28%
    17:00 +28°C° 0 mm 6 mps 757 mmHg 30%
    18:00 +27°C° 0 mm 6 mps 757 mmHg 33%
    19:00 +27°C° 0 mm 5 mps 758 mmHg 33%
    20:00 +27°C° 0 mm 5 mps 758 mmHg 33%
    21:00 +27°C° 0 mm 5 mps 758 mmHg 32%
    22:00 +27°C° 0 mm 5 mps 758 mmHg 34%
    23:00 +26°C° 0 mm 5 mps 758 mmHg 36%

    Day after tomorrow, 27 April, Saturday

    Time Temperature Precipitation Wind Pressure Humidity
    00:00 +26°C° 0 mm 5 mps 758 mmHg 38%
    01:00 +26°C° 0 mm 5 mps 757 mmHg 38%
    02:00 +26°C° 0 mm 6 mps 757 mmHg 37%
    03:00 +26°C° 0 mm 6 mps 757 mmHg 37%
    04:00 +26°C° 0 mm 5 mps 757 mmHg 39%
    05:00 +26°C° 0 mm 4 mps 758 mmHg 42%
    06:00 +26°C° 0 mm 4 mps 758 mmHg 44%
    07:00 +27°C° 0 mm 4 mps 758 mmHg 39%
    08:00 +27°C° 0 mm 4 mps 759 mmHg 33%
    09:00 +28°C° 0 mm 3 mps 759 mmHg 27%
    10:00 +29°C° 0 mm 3 mps 759 mmHg 25%
    11:00 +29°C° 0 mm 3 mps 759 mmHg 23%
    12:00 +30°C° 0 mm 3 mps 759 mmHg 20%
    13:00 +30°C° 0 mm 4 mps 758 mmHg 21%
    14:00 +30°C° 0 mm 4 mps 757 mmHg 21%
    15:00 +30°C° 0 mm 5 mps 757 mmHg 21%
    16:00 +30°C° 0 mm 5 mps 757 mmHg 25%
    17:00 +29°C° 0 mm 5 mps 757 mmHg 28%
    18:00 +28°C° 0 mm 5 mps 757 mmHg 32%
    19:00 +28°C° 0 mm 5 mps 757 mmHg 34%
    20:00 +27°C° 0 mm 4 mps 757 mmHg 35%
    21:00 +27°C° 0 mm 3 mps 758 mmHg 37%
    22:00 +27°C° 0 mm 3 mps 757 mmHg 35%
    23:00 +27°C° 0 mm 3 mps 757 mmHg 33%

    28 April, Sunday

    Time Temperature Precipitation Wind Pressure Humidity
    00:00 +27°C° 0 mm 3 mps 757 mmHg 32%
    01:00 +27°C° 0 mm 3 mps 756 mmHg 32%
    02:00 +27°C° 0 mm 3 mps 756 mmHg 32%
    03:00 +26°C° 0 mm 4 mps 756 mmHg 32%
    04:00 +27°C° 0 mm 3 mps 756 mmHg 32%
    05:00 +27°C° 0 mm 3 mps 756 mmHg 32%
    06:00 +27°C° 0 mm 2 mps 756 mmHg 32%
    07:00 +28°C° 0 mm 3 mps 757 mmHg 29%
    08:00 +29°C° 0 mm 3 mps 757 mmHg 25%
    09:00 +30°C° 0 mm 3 mps 758 mmHg 22%
    10:00 +31°C° 0 mm 3 mps 757 mmHg 20%
    11:00 +31°C° 0 mm 3 mps 757 mmHg 18%
    12:00 +33°C° 0 mm 3 mps 757 mmHg 17%
    13:00 +33°C° 0 mm 4 mps 756 mmHg 18%
    14:00 +33°C° 0 mm 4 mps 756 mmHg 19%
    15:00 +33°C° 0 mm 4 mps 755 mmHg 20%
    16:00 +30°C° 0 mm 5 mps 756 mmHg 26%
    17:00 +29°C° 0 mm 6 mps 756 mmHg 32%
    18:00 +28°C° 0 mm 6 mps 756 mmHg 39%
    19:00 +27°C° 0 mm 5 mps 756 mmHg 43%
    20:00 +27°C° 0 mm 5 mps 757 mmHg 48%
    21:00 +27°C° 0 mm 4 mps 757 mmHg 52%
    22:00 +27°C° 0 mm 3 mps 757 mmHg 52%
    23:00 +26°C° 0 mm 3 mps 757 mmHg 51%

    29 April, Monday

    Time Temperature Precipitation Wind Pressure Humidity
    00:00 +26°C° 0 mm 3 mps 756 mmHg 51%
    01:00 +26°C° 0 mm 4 mps 756 mmHg 54%
    02:00 +26°C° 0 mm 5 mps 756 mmHg 58%
    03:00 +24°C° 0 mm 6 mps 756 mmHg 62%
    04:00 +24°C° 0 mm 6 mps 757 mmHg 62%
    05:00 +24°C° 0 mm 6 mps 757 mmHg 62%
    06:00 +24°C° 0 mm 6 mps 757 mmHg 62%
    07:00 +26°C° 0 mm 7 mps 758 mmHg 55%
    08:00 +27°C° 0 mm 7 mps 758 mmHg 48%
    09:00 +28°C° 0 mm 7 mps 758 mmHg 41%
    10:00 +29°C° 0 mm 7 mps 758 mmHg 38%
    11:00 +31°C° 0 mm 8 mps 758 mmHg 34%
    12:00 +31°C° 0 mm 8 mps 757 mmHg 31%
    13:00 +31°C° 0 mm 8 mps 757 mmHg 31%
    14:00 +30°C° 0 mm 7 mps 756 mmHg 31%
    15:00 +30°C° 0 mm 7 mps 756 mmHg 32%
    16:00 +29°C° 0 mm 7 mps 756 mmHg 35%
    17:00 +28°C° 0 mm 7 mps 756 mmHg 38%
    18:00 +27°C° 0 mm 6 mps 756 mmHg 41%
    19:00 +27°C° 0 mm 6 mps 756 mmHg 41%
    20:00 +27°C° 0 mm 5 mps 757 mmHg 42%
    21:00 +27°C° 0 mm 4 mps 757 mmHg 42%
    22:00 +27°C° 0 mm 4 mps 757 mmHg 41%
    23:00 +27°C° 0 mm 4 mps 756 mmHg 39%

    30 April, Tuesday

    Time Temperature Precipitation Wind Pressure Humidity
    00:00 +27°C° 0 mm 4 mps 756 mmHg 38%
    01:00 +27°C° 0 mm 4 mps 756 mmHg 37%
    02:00 +27°C° 0 mm 4 mps 756 mmHg 36%
    03:00 +27°C° 0 mm 4 mps 755 mmHg 35%
    04:00 +27°C° 0 mm 4 mps 756 mmHg 35%
    05:00 +27°C° 0 mm 4 mps 756 mmHg 34%
    06:00 +27°C° 0 mm 4 mps 756 mmHg 34%
    07:00 +29°C° 0 mm 4 mps 757 mmHg 31%
    08:00 +30°C° 0 mm 4 mps 757 mmHg 27%
    09:00 +32°C° 0 mm 4 mps 757 mmHg 24%
    10:00 +33°C° 0 mm 4 mps 757 mmHg 22%
    11:00 +34°C° 0 mm 4 mps 756 mmHg 21%
    12:00 +35°C° 0 mm 3 mps 756 mmHg 19%
    13:00 +35°C° 0 mm 4 mps 755 mmHg 19%
    14:00 +35°C° 0 mm 4 mps 755 mmHg 19%
    15:00 +35°C° 0 mm 5 mps 754 mmHg 19%
    16:00 +34°C° 0 mm 5 mps 754 mmHg 22%
    17:00 +34°C° 0 mm 5 mps 754 mmHg 24%
    18:00 +33°C° 0 mm 6 mps 754 mmHg 26%
    19:00 +32°C° 0 mm 5 mps 755 mmHg 28%
    20:00 +32°C° 0 mm 5 mps 755 mmHg 29%
    21:00 +30°C° 0 mm 4 mps 755 mmHg 30%
    22:00 +30°C° 0 mm 4 mps 755 mmHg 29%
    23:00 +30°C° 0 mm 4 mps 754 mmHg 27%
    Show more